Weather in Usinsk

Russia / Komi Republic     65°59′38″N   57°33′25″E
temp.,
°C
wind,
m/s
gust,
m/s
humid.,
%
clouds,
%
prec.,
mm/h
press.,
hPa
HPBL,
m
17 april, sat
sat1700:00−4e4696100 1.7 1018246
03:00−2w61296100 3.1 1017626
06:00−3wnw81288100 0.1 1018639
09:00−2w5695100 1.4 1016536
12:00−2wsw359987 1.7 1013387
15:00−1nnw79796 3.1 10141044
18:00−3nnw81190100 0.9 1017542
21:00−6nne6109478 0.9 1021212
18 april, sun
sun1800:00−12nne711865 0.0 1027190
03:00−16nne57810 0.0 103290
06:00−13nne45780 0.0 1035180
09:00−10nnw44690 0.0 1036426
12:00−6nw465995 0.0 10371170
15:00−5nnw676062 0.0 10371072
18:00−6n45755 0.0 1038232
21:00−8n22885 0.0 103819
19 april, mon
mon1900:00−9wsw229198 0.0 103825
03:00−8sw459274 0.0 103794
06:00−5sw698592 0.0 1035358
09:00−2sw9116698 0.0 1033639
12:00+1wsw91363100 0.0 1031958
15:00+2w101468100 0.0 1029822
18:00+1wnw101691100 0.2 1028617
21:00+1wnw8158795 0.6 1028460
20 april, tue
tue2000:000w71384100 0.0 1027341
03:00−1w611915 0.0 1027218
06:000w6129128 0.0 1027442
09:00+3wnw7118233 0.0 1027637
12:00+4wnw9117530 0.0 1028594
15:00+4wnw810766 0.0 1029530
18:00+2nw58918 0.0 1029175
21:000nw349572 0.0 103058
21 april, wed
wed2100:000n119372 0.0 103010
03:000ssw339424 0.0 103137
06:00+1s349126 0.0 1031159
09:00+5ssw448071 0.0 1031353
12:00+8ssw45727 0.0 1030654
15:00+9s566389 0.0 1028915
18:00+7sse5876100 0.0 1027110
21:00+4sse598791 0.0 1027121